Change the Weather History Date:

Friday, October 4, 2013

  Actual Average Record
Temperature  
Mean Temperature 44 °F -  
Max Temperature 55 °F 72 °F 104 °F (1996)
Min Temperature 34 °F 42 °F 34 °F (1986)
Degree Days  
Heating Degree Days 20    
Moisture  
Dew Point 21 °F    
Average Humidity 36    
Maximum Humidity 59    
Minimum Humidity 12    
Precipitation  
Precipitation 0.00 in - - ()
Sea Level Pressure  
Sea Level Pressure 30.05 in    
Wind  
Wind Speed 16 mph (WNW)    
Max Wind Speed 22 mph    
Max Gust Speed 36 mph    
Visibility 10 miles    
Events      
Averages and records for this station are not official NWS values.
T = Trace of Precipitation, MM = Missing Value Source: NWS Daily Summary

Daily Weather History Graph

Daily Weather History Graph

Search for Another Location

Airport or City:

Trip Planner

Search our weather history database for the weather conditions in past years. The results will help you decide how hot, cold, wet, or windy it might be!

Date:

Astronomy

Oct. 04, 2013 Rise Set
Actual Time 7:10 AM MDT 6:51 PM MDT
Civil Twilight 6:45 AM MDT 7:17 PM MDT
Nautical Twilight 6:15 AM MDT 7:47 PM MDT
Astronomical Twilight 5:45 AM MDT 8:17 PM MDT
Moon 6:49 AM MDT (10/4) 6:36 PM MDT (10/4)
Length of Visible Light 12h 32m
Length of Day
11h 40m
Waning Crescent, 0% of the Moon is Illuminated
Oct 4
Waning Crescent
Oct 4
New
Oct 11
First Quarter
Oct 18
Full
Oct 26
Last Quarter

Hourly Weather History & Observations

Time (MDT) Temp. Windchill Dew Point Humidity Pressure Visibility Wind Dir Wind Speed Gust Speed Precip Events Conditions
12:53 AM 48.0 °F - 28.0 °F 46% 29.81 in 10.0 mi NW 21.9 mph 31.1 mph N/A   Clear
1:53 AM 44.1 °F 36.8 °F 28.0 °F 53% 29.88 in 10.0 mi NW 16.1 mph 26.5 mph N/A   Clear
2:53 AM 45.0 °F 37.9 °F 24.1 °F 44% 29.90 in 10.0 mi WNW 16.1 mph 23.0 mph N/A   Mostly Cloudy
3:53 AM 44.1 °F 36.8 °F 25.0 °F 47% 29.88 in 10.0 mi West 16.1 mph - N/A   Overcast
4:53 AM 42.1 °F 36.1 °F 26.1 °F 53% 29.91 in 10.0 mi WSW 10.4 mph - N/A   Overcast
5:53 AM 39.0 °F 31.4 °F 24.1 °F 55% 29.94 in 10.0 mi WSW 12.7 mph - N/A   Clear
6:53 AM 37.0 °F 28.9 °F 24.1 °F 59% 29.98 in 10.0 mi West 12.7 mph - N/A   Clear
7:53 AM 37.0 °F 29.8 °F 24.1 °F 59% 30.01 in 10.0 mi West 10.4 mph - N/A   Clear
8:53 AM 41.0 °F 33.5 °F 24.1 °F 51% 30.03 in 10.0 mi West 13.8 mph - N/A   Clear
9:53 AM 44.1 °F 37.7 °F 23.0 °F 43% 30.03 in 10.0 mi West 12.7 mph - N/A   Clear
10:53 AM 48.0 °F - 19.0 °F 32% 30.04 in 10.0 mi West 15.0 mph 28.8 mph N/A   Clear
11:53 AM 50.0 °F - 18.0 °F 28% 30.07 in 10.0 mi West 18.4 mph 25.3 mph N/A   Clear
12:53 PM 53.1 °F - 18.0 °F 25% 30.06 in 10.0 mi WNW 15.0 mph 28.8 mph N/A   Clear
1:53 PM 54.0 °F - 18.0 °F 24% 30.07 in 10.0 mi WNW 17.3 mph 35.7 mph N/A   Clear
2:53 PM 54.0 °F - 16.0 °F 22% 30.06 in 10.0 mi NW 19.6 mph 26.5 mph N/A   Clear
3:53 PM 55.0 °F - 12.9 °F 19% 30.07 in 10.0 mi NW 18.4 mph 26.5 mph N/A   Clear
4:53 PM 54.0 °F - 14.0 °F 21% 30.10 in 10.0 mi WNW 15.0 mph 26.5 mph N/A   Clear
5:53 PM 52.0 °F - 15.1 °F 23% 30.12 in 10.0 mi NW 17.3 mph 26.5 mph N/A   Clear
6:53 PM 48.0 °F - 17.1 °F 29% 30.16 in 10.0 mi NW 11.5 mph 21.9 mph N/A   Clear
7:53 PM 46.0 °F 38.5 °F 17.1 °F 31% 30.19 in 10.0 mi NNW 19.6 mph 24.2 mph N/A   Clear
8:53 PM 44.1 °F 36.5 °F 21.9 °F 42% 30.20 in 10.0 mi NW 17.3 mph 26.5 mph N/A   Clear
9:53 PM 43.0 °F 35.7 °F 19.9 °F 40% 30.18 in 10.0 mi NW 15.0 mph 23.0 mph N/A   Clear
10:53 PM 42.1 °F 33.3 °F 21.0 °F 43% 30.18 in 10.0 mi NW 19.6 mph 34.5 mph N/A   Clear
11:53 PM 39.9 °F 33.4 °F 21.9 °F 49% 30.20 in 10.0 mi West 10.4 mph - N/A   Clear